Wetbulb
77.00 77.22 74.40 75.03 75.25 74.43 76.02 75.79 78.65 77.63 77.87 78.77 78.98 78.33 79.59 78.98 77.78 77.82 77.01 77.25 74.94 73.48
76.84 76.20 76.83 75.24 76.38 77.34 76.95 76.42 81.67 78.37 78.05 78.67 79.19 78.95 78.34 77.84 77.76 78.07 77.01 76.37 76.60 74.77
78.27 76.70 76.24 77.71 75.39 75.53 77.56 80.76 81.46 78.63 78.48 78.26 78.21 78.84 78.35 77.96 78.31 77.26 76.89 75.65 75.59 75.32
77.90 78.28 77.32 76.11 77.11 76.58 77.58 77.80 78.70 80.34 78.33 77.89 77.88 78.03 78.36 77.94 77.53 77.23 76.86 76.20 76.04 74.72
78.24 78.55 78.12 77.05 77.19 77.73 77.83 79.65 78.42 79.12 79.15 77.75 77.39 77.75 77.93 77.17 76.50 77.48 76.70 76.04 75.83 75.49
77.83 78.19 78.20 78.26 77.52 78.09 78.14 77.94 79.41 79.35 78.03 77.63 77.26 77.09 77.66 77.89 77.81 77.00 77.45 77.06 75.90 74.47
77.84 78.08 78.48 78.59 78.57 78.16 78.09 78.69 78.05 78.86 78.88 78.16 77.82 77.44 77.36 77.79 77.70 77.66 77.08 77.56 77.03 75.74
78.01 78.65 78.65 78.58 78.58 78.81 78.69 78.29 79.16 78.79 78.60 78.81 78.40 78.05 77.20 77.33 77.81 77.61 77.29 77.01 77.54 76.65
77.93 78.20 78.39 78.47 78.47 78.58 78.80 78.73 78.73 78.68 78.73 78.30 78.71 72.11 70.02 75.29 76.83 77.66 77.28 76.75 76.50 76.88
77.82 77.73 78.05 78.67 78.63 78.43 78.20 78.63 78.36 78.68 78.68 78.39 78.71 68.72 67.28 69.33 77.08 76.58 77.00 76.91 76.62 76.14
78.15 77.78 78.42 78.51 78.59 78.54 78.57 78.31 78.34 78.39 78.81 78.59 78.67 68.57 65.47 66.87 75.55 76.54 76.61 76.42 76.80 76.61
77.93 78.20 78.17 78.01 78.41 78.85 78.57 78.57 78.37 78.95 78.65 78.51 78.44 66.25 64.72 65.64 73.87 74.94 75.37 76.68 76.83 76.91
78.07 78.01 78.04 78.22 78.58 79.17 79.15 78.63 79.12 78.56 78.88 75.28 78.54 67.92 62.59 65.62 76.30 74.54 74.50 75.46 75.93 67.97
77.84 78.08 78.60 78.94 79.19 79.21 78.95 78.67 78.45 78.36 78.82 79.05 77.79 77.63 60.60 59.84 76.52 75.94 75.19 74.83 74.55 75.55
MSLP
1011.26 1011.32 1011.73 1011.97 1011.98 1012.18 1012.25 1012.43 1012.67 1013.50 1014.06 1014.52 1014.90 1015.33 1015.59 1016.16 1016.64 1017.00 1017.37 1017.46 1017.51 1017.61
1010.41 1010.79 1010.72 1011.30 1011.69 1011.81 1011.88 1011.96 1012.03 1012.84 1013.51 1014.01 1014.46 1015.00 1015.50 1015.88 1016.21 1016.43 1016.86 1017.16 1017.25 1017.39
1009.11 1009.88 1010.33 1010.60 1011.08 1011.25 1011.54 1011.63 1011.84 1012.40 1012.93 1013.49 1013.99 1014.60 1015.16 1015.52 1015.70 1016.01 1016.34 1016.61 1016.95 1017.17
1008.10 1008.80 1009.52 1009.86 1010.20 1010.73 1011.04 1011.39 1011.60 1012.16 1012.63 1013.07 1013.48 1014.02 1014.50 1014.79 1014.87 1015.38 1015.96 1016.13 1016.44 1016.74
1007.50 1008.04 1008.55 1009.17 1009.50 1010.02 1010.57 1010.94 1011.29 1011.64 1012.09 1012.47 1012.84 1013.25 1013.69 1014.06 1014.43 1014.83 1015.35 1015.54 1015.78 1015.99
1006.46 1006.92 1007.49 1008.16 1008.82 1009.16 1009.72 1010.25 1010.56 1010.90 1011.30 1011.63 1011.95 1012.38 1012.86 1013.34 1013.93 1014.20 1014.28 1014.65 1015.15 1015.22
1005.10 1005.90 1006.63 1007.23 1007.77 1008.27 1008.64 1009.08 1009.62 1009.84 1010.14 1010.62 1011.11 1011.59 1012.02 1012.54 1012.98 1013.31 1013.52 1013.86 1014.20 1014.47
1004.04 1004.89 1005.75 1006.28 1006.75 1007.32 1007.83 1008.09 1008.40 1008.93 1009.38 1009.84 1010.26 1010.60 1011.11 1011.60 1012.03 1012.48 1012.61 1012.73 1012.71 1012.93
1002.77 1003.76 1004.51 1005.18 1005.67 1006.41 1006.92 1007.30 1007.74 1008.05 1008.36 1008.74 1009.05 1009.33 1009.85 1010.48 1010.82 1010.92 1011.47 1011.67 1011.74 1012.06
1001.38 1002.35 1003.20 1003.97 1004.76 1005.41 1005.91 1006.41 1006.67 1006.83 1007.30 1007.58 1007.86 1008.21 1008.72 1009.26 1009.72 1010.04 1010.16 1010.40 1010.64 1010.82
1000.11 1001.08 1002.08 1002.91 1003.61 1004.28 1004.83 1005.15 1005.57 1006.02 1006.29 1006.63 1006.72 1007.07 1007.50 1008.14 1008.61 1008.91 1008.96 1008.88 1008.98 1009.12
999.33 1000.19 1001.05 1001.76 1002.51 1003.21 1003.84 1004.21 1004.39 1004.75 1005.13 1005.31 1005.51 1005.93 1006.60 1007.61 1008.04 1007.98 1007.74 1006.99 1007.18 1007.49
998.54 999.19 999.82 1000.72 1001.55 1002.24 1002.74 1003.11 1003.63 1003.75 1003.89 1004.29 1004.56 1005.02 1005.65 1006.34 1006.55 1006.38 1005.14 1006.31 1006.12 1006.25
997.73 998.33 999.14 1000.03 1000.83 1001.48 1001.95 1002.35 1002.66 1002.80 1003.05 1003.29 1003.58 1003.98 1004.59 1005.27 1005.40 1005.31 1005.86 1005.83 1005.91 1006.26
Wind_Speed
15 9 12 11 8 9 6 8 11 13 11 9 10 9 5 6 5 6 5 5 4 3
17 17 13 13 9 7 8 7 6 14 12 10 7 9 8 6 8 6 7 6 5 4
18 18 16 11 13 12 8 6 3 14 13 12 11 8 10 7 7 9 7 6 7 5
19 18 17 16 13 13 11 9 8 6 11 12 11 12 9 10 9 10 8 7 6 10
17 17 18 17 16 14 13 11 12 9 9 11 13 12 13 13 12 8 11 11 9 9
19 19 18 18 18 15 15 15 13 12 13 13 14 14 14 14 13 11 11 13 12 12
20 19 17 17 18 18 17 16 17 16 15 15 15 15 15 15 15 15 13 12 14 14
18 17 17 17 17 17 17 17 17 16 16 15 15 14 16 15 15 15 16 15 15 16
19 18 18 18 18 16 17 17 16 17 17 18 14 17 19 18 15 17 17 16 16 15
18 19 19 18 17 17 17 16 18 18 17 18 19 17 20 22 16 15 16 18 16 15
17 18 18 18 18 17 16 18 16 16 17 17 16 18 19 21 19 16 17 19 19 20
15 15 17 18 18 16 16 16 17 16 17 19 18 18 18 16 13 16 20 21 21 20
14 16 18 17 17 15 15 16 13 16 17 18 18 16 19 19 14 19 18 16 20 20
15 14 14 14 14 14 15 14 15 16 15 17 16 17 18 21 17 15 12 13 11 12
Wind_Direction
212 207 211 220 225 213 219 210 180 189 190 187 182 198 226 170 186 177 197 212 220 279
202 212 205 214 217 241 212 251 169 175 181 187 194 186 202 204 185 197 184 203 201 225
202 205 214 200 213 221 232 231 154 176 180 181 182 197 195 205 214 196 186 202 193 203
205 202 207 212 206 213 212 222 237 187 180 182 183 193 204 213 207 204 199 192 204 198
206 208 206 209 211 207 214 204 213 210 189 187 191 196 204 210 222 211 200 206 204 201
206 207 208 206 209 212 204 213 207 208 205 198 199 199 205 209 211 221 214 207 205 216
209 209 207 208 209 208 211 206 212 210 206 210 204 205 206 206 211 214 224 213 211 212
204 208 207 210 212 211 210 213 208 212 213 209 215 210 209 208 209 214 217 224 217 213
199 199 207 209 212 212 212 215 212 212 212 215 215 210 199 204 212 213 215 219 226 225
194 199 201 205 208 211 213 212 216 215 214 216 218 209 200 200 213 217 218 220 222 225
192 196 197 203 205 209 209 214 215 218 218 220 221 208 204 201 213 219 224 227 219 221
195 194 197 203 205 205 209 212 216 216 217 220 225 209 202 187 212 224 230 227 223 219
206 201 203 202 204 205 208 215 215 221 222 224 229 210 198 190 214 223 234 237 234 223
203 211 203 200 203 206 209 212 217 224 224 227 225 226 196 199 218 229 240 242 244 242